sat.trackr.live / text

‹ back to catalog

STARLINK-34349

NORAD 64215 · 2025-117N

PAYLOAD ACTIVE UNKNOWN

§ Identity

Operator
Country
US
Launch date
2025-05-31
Launch site
AFWTR
Launch vehicle
Mass (kg)
RCS (m²)

Purposes: comms

External: N2YO · Heavens-Above · Gunter

§ Orbital elements

Epoch: 2026-09-20T06:34:26.062464Z

Period
93.85 min
Inclination
53.1568°
Eccentricity
0.0001331
Mean motion
15.34413972 rev/d
Perigee alt
461.8 km
Apogee alt
463.6 km
Semi-major
6,840.8 km
B*
5.5352e-4
RAAN
212.4999°
Arg perigee
92.1909°
Mean anomaly
267.9246°
Rev number
7,436

§ Raw data

STARLINK-343491 64215U 25117N   26263.27391276  .00018379  00000+0  55352-3 0  99902 64215  53.1568 212.4999 0001331  92.1909 267.9246 15.34413972 74367

JSON: /api/v1/satellites/64215 · /tle

For live sub-satellite position, see the globe view (requires WebGL).

§ Visibility from observer

Set your observer location to see the next 7 days of passes ≥ 10°. The values pass through the URL so the page stays shareable.

No JS? Fill the form by hand. The geolocation button needs JavaScript.